Back to catalog

CZ-6A DEB

AlivePO
NORAD 60982·DEBRIS·🇨🇳 China

Launched Aug 6, 2024 from Taiyuan Satellite Launch Center

Loading…

Next Passes (next 24 hours)

TLE

FreshSource: Space-Track

Epoch: Sep 14, 2026, 12:20 UTC

1 60982U 24140MH  26257.51429273  .00002805  00000-0  90237-3 0  9990
2 60982  89.2666 287.4832 0036093 276.5558  83.1535 14.38771027108067

Track CZ-6A DEB in real time with AllMySat

Download on the App Store